Location: Ciserano
(45.5833°N, 9.6000°E)
Time: 23:45:11
(UTC+00:00)

FALCON 9 DEB - Pass Details

Date: 18 June 2021
Orbit: 364 x 377 km, 53.0° (Epoch: 26 July)

Event Time Altitude Azimuth Distance (km) Brightness Sun altitude
Rises 21:08:50 0° 227° (SW) 2,248 6.6 -14.6°
Reaches altitude 10° 21:10:53 10° 223° (SW) 1,401 5.5 -14.8°
Maximum altitude 21:13:58 57° 144° (SE) 457 2.8 -15.0°
Drops below altitude 10° 21:17:05 10° 64° (ENE) 1,413 5.7 -15.3°
Sets 21:19:09 0° 60° (ENE) 2,270 6.8 -15.5°
